Weather History for K5H4 - December, 2012

Change the Weather History Date:

Monday, December 10, 2012

  Actual Average (KRUG) Record (KRUG)
Temperature  
Mean Temperature 10 °F -  
Max Temperature 19 °F 22 °F 55 °F (1987)
Min Temperature 0 °F 1 °F -30 °F (1977)
Degree Days  
Heating Degree Days 56    
Moisture  
Dew Point 6 °F    
Average Humidity 81    
Maximum Humidity 92    
Minimum Humidity 72    
Precipitation  
Precipitation 0.00 in - - ()
Sea Level Pressure  
Sea Level Pressure 29.74 in    
Wind  
Wind Speed 10 mph (WSW)    
Max Wind Speed 17 mph    
Max Gust Speed 23 mph    
Visibility 10 miles    
Events Snow    
Averages and records for this station are not official NWS values.
T = Trace of Precipitation, MM = Missing Value Source: NWS Daily Summary

Daily Weather History Graph

Daily Weather History Graph

Search for Another Location

Airport or City:

Trip Planner

Search our weather history database for the weather conditions in past years. The results will help you decide how hot, cold, wet, or windy it might be!

Date:

Astronomy

Dec. 10, 2012 Rise Set
Actual Time 8:18 AM CST 4:47 PM CST
Civil Twilight 7:42 AM CST 5:23 PM CST
Nautical Twilight 7:02 AM CST 6:02 PM CST
Astronomical Twilight 6:25 AM CST 6:40 PM CST
Moon 4:55 AM CST (12/10) 2:44 PM CST (12/10)
Length of Visible Light 9h 41m
Length of Day
8h 29m
Waning Crescent, 10% of the Moon is Illuminated
Dec 10
Waning Crescent
Dec 13
New
Dec 19
First Quarter
Dec 28
Full
Jan 4
Last Quarter

Hourly Weather History & Observations

Time (CST) Temp. Windchill Dew Point Humidity Pressure Visibility Wind Dir Wind Speed Gust Speed Precip Events Conditions
12:15 AM -0.4 °F -12.0 °F -2.2 °F 92% 30.04 in 10.0 mi South 5.8 mph - N/A   Clear
12:35 AM -0.4 °F -13.4 °F -2.2 °F 92% 30.03 in 10.0 mi South 6.9 mph - N/A   Clear
12:55 AM 1.4 °F -12.5 °F -2.2 °F 85% 30.01 in 10.0 mi South 8.1 mph - N/A   Partly Cloudy
1:15 AM 3.2 °F -11.3 °F -0.4 °F 85% 29.99 in 10.0 mi South 9.2 mph - N/A   Partly Cloudy
1:35 AM 3.2 °F -11.3 °F -0.4 °F 85% 29.97 in 10.0 mi South 9.2 mph - N/A   Clear
1:55 AM 3.2 °F -12.2 °F -0.4 °F 85% 29.95 in 10.0 mi South 10.4 mph - N/A   Clear
2:15 AM 1.4 °F -15.3 °F -0.4 °F 92% 29.93 in 10.0 mi South 11.5 mph - N/A   Clear
2:55 AM 3.2 °F -11.3 °F -0.4 °F 85% 29.91 in 10.0 mi South 9.2 mph - N/A   Clear
3:15 AM 3.2 °F -13.1 °F -0.4 °F 85% 29.90 in 10.0 mi South 11.5 mph - N/A   Clear
3:35 AM 5.0 °F -9.1 °F -0.4 °F 78% 29.89 in 10.0 mi South 9.2 mph - N/A   Clear
3:55 AM 6.8 °F -10.0 °F -0.4 °F 72% 29.87 in 10.0 mi South 13.8 mph - N/A   Clear
4:15 AM 5.0 °F -10.8 °F -0.4 °F 78% 29.85 in 10.0 mi South 11.5 mph 18.4 mph N/A   Clear
4:35 AM 3.2 °F -10.3 °F -2.2 °F 78% 29.84 in 10.0 mi South 8.1 mph - N/A   Clear
4:55 AM 3.2 °F -12.2 °F -2.2 °F 78% 29.83 in 10.0 mi South 10.4 mph - N/A   Clear
5:15 AM 5.0 °F -10.0 °F -0.4 °F 78% 29.81 in 10.0 mi South 10.4 mph - N/A   Clear
5:35 AM 5.0 °F -11.6 °F -0.4 °F 78% 29.79 in 10.0 mi South 12.7 mph - N/A   Clear
6:15 AM 5.0 °F -11.6 °F -0.4 °F 78% 29.77 in 10.0 mi South 12.7 mph 17.3 mph N/A   Clear
6:35 AM 5.0 °F -10.8 °F -0.4 °F 78% 29.77 in 10.0 mi SSW 11.5 mph - N/A   Clear
6:55 AM 5.0 °F -10.8 °F -0.4 °F 78% 29.76 in 10.0 mi South 11.5 mph - N/A   Clear
7:15 AM 6.8 °F -10.0 °F -0.4 °F 72% 29.75 in 10.0 mi SSW 13.8 mph - N/A   Clear
7:35 AM 6.8 °F -9.3 °F -0.4 °F 72% 29.74 in 10.0 mi SSW 12.7 mph 18.4 mph N/A   Clear
7:55 AM 6.8 °F -10.0 °F -0.4 °F 72% 29.72 in 10.0 mi SSW 13.8 mph - N/A   Partly Cloudy
8:15 AM 6.8 °F -9.3 °F -0.4 °F 72% 29.72 in 10.0 mi SSW 12.7 mph - N/A   Scattered Clouds
8:35 AM 8.6 °F -7.7 °F 1.4 °F 73% 29.72 in 10.0 mi SSW 13.8 mph - N/A   Scattered Clouds
8:55 AM 8.6 °F -9.5 °F 1.4 °F 73% 29.70 in 10.0 mi SSW 17.3 mph - N/A   Mostly Cloudy
9:15 AM 8.6 °F -7.7 °F 1.4 °F 73% 29.70 in 10.0 mi SSW 13.8 mph 21.9 mph N/A   Overcast
9:35 AM 8.6 °F -8.9 °F 1.4 °F 73% 29.69 in 10.0 mi SSW 16.1 mph 23.0 mph N/A   Overcast
9:55 AM 10.4 °F -7.2 °F 3.2 °F 73% 29.69 in 10.0 mi SSW 17.3 mph - N/A   Overcast
10:15 AM 10.4 °F -4.8 °F 5.0 °F 79% 29.69 in 9.0 mi SW 12.7 mph - N/A   Overcast
10:35 AM 10.4 °F -4.1 °F 5.0 °F 79% 29.69 in 3.0 mi SW 11.5 mph 18.4 mph N/A Snow Light Snow
10:55 AM 12.2 °F -3.1 °F 6.8 °F 79% 29.69 in 4.0 mi SW 13.8 mph - N/A Snow Light Snow
11:15 AM 12.2 °F -3.1 °F 8.6 °F 85% 29.69 in 8.0 mi SW 13.8 mph 18.4 mph N/A   Overcast
11:35 AM 14.0 °F -0.2 °F 8.6 °F 79% 29.68 in 5.0 mi SW 12.7 mph - N/A   Overcast
11:55 AM 14.0 °F -0.8 °F 10.4 °F 86% 29.67 in 3.0 mi SW 13.8 mph - N/A Snow Light Snow
12:15 PM 15.8 °F 2.7 °F 10.4 °F 79% 29.66 in 10.0 mi SW 11.5 mph - N/A   Overcast
12:35 PM 15.8 °F 2.7 °F 10.4 °F 79% 29.66 in 10.0 mi SW 11.5 mph - N/A   Overcast
12:55 PM 15.8 °F 2.1 °F 10.4 °F 79% 29.66 in 10.0 mi SW 12.7 mph - N/A   Mostly Cloudy
1:15 PM 17.6 °F 5.7 °F 10.4 °F 73% 29.65 in 10.0 mi WSW 10.4 mph - N/A   Scattered Clouds
1:35 PM 17.6 °F 5.0 °F 10.4 °F 73% 29.64 in 10.0 mi WSW 11.5 mph - N/A   Partly Cloudy
1:55 PM 19.4 °F 7.9 °F 12.2 °F 74% 29.64 in 10.0 mi WSW 10.4 mph - N/A   Clear
2:15 PM 19.4 °F 8.6 °F 12.2 °F 74% 29.65 in 10.0 mi WSW 9.2 mph - N/A   Clear
2:35 PM 19.4 °F 7.9 °F 12.2 °F 74% 29.64 in 10.0 mi West 10.4 mph - N/A   Clear
2:55 PM 19.4 °F 7.9 °F 12.2 °F 74% 29.65 in 10.0 mi West 10.4 mph - N/A   Clear
3:15 PM 19.4 °F 8.6 °F 12.2 °F 74% 29.65 in 10.0 mi WSW 9.2 mph - N/A   Clear
3:35 PM 19.4 °F 7.2 °F 12.2 °F 74% 29.66 in 10.0 mi West 11.5 mph - N/A   Clear
3:55 PM 19.4 °F 8.6 °F 12.2 °F 74% 29.66 in 10.0 mi WNW 9.2 mph - N/A   Clear
4:15 PM 17.6 °F 6.4 °F 12.2 °F 79% 29.66 in 10.0 mi West 9.2 mph - N/A   Clear
4:35 PM 17.6 °F 5.0 °F 12.2 °F 79% 29.67 in 10.0 mi West 11.5 mph - N/A   Clear
4:55 PM 15.8 °F 2.7 °F 10.4 °F 79% 29.67 in 10.0 mi WNW 11.5 mph - N/A   Clear
5:15 PM 15.8 °F 2.7 °F 10.4 °F 79% 29.68 in 10.0 mi WNW 11.5 mph - N/A   Mostly Cloudy
5:35 PM 15.8 °F 1.4 °F 10.4 °F 79% 29.69 in 10.0 mi WNW 13.8 mph 19.6 mph N/A   Overcast
5:55 PM 15.8 °F 2.1 °F 10.4 °F 79% 29.69 in 10.0 mi WNW 12.7 mph - N/A   Overcast
6:15 PM 14.0 °F 2.9 °F 10.4 °F 86% 29.70 in 10.0 mi WNW 8.1 mph - N/A   Overcast
6:35 PM 14.0 °F 2.0 °F 10.4 °F 86% 29.70 in 10.0 mi WNW 9.2 mph - N/A   Mostly Cloudy
6:55 PM 14.0 °F 2.0 °F 8.6 °F 79% 29.70 in 10.0 mi WNW 9.2 mph - N/A   Clear
7:15 PM 12.2 °F -0.2 °F 8.6 °F 85% 29.70 in 10.0 mi WNW 9.2 mph - N/A   Clear
7:35 PM 12.2 °F 0.7 °F 8.6 °F 85% 29.70 in 10.0 mi WNW 8.1 mph - N/A   Clear
7:55 PM 10.4 °F -4.8 °F 6.8 °F 85% 29.71 in 10.0 mi WNW 12.7 mph - N/A   Clear
8:15 PM 12.2 °F -2.5 °F 8.6 °F 85% 29.70 in 10.0 mi WNW 12.7 mph - N/A   Clear
8:55 PM 10.4 °F -4.1 °F 8.6 °F 92% 29.71 in 10.0 mi WNW 11.5 mph - N/A   Clear
9:15 PM 10.4 °F -4.8 °F 8.6 °F 92% 29.70 in 10.0 mi WNW 12.7 mph - N/A   Clear
9:35 PM 10.4 °F -4.8 °F 8.6 °F 92% 29.70 in 10.0 mi WNW 12.7 mph - N/A   Clear
9:55 PM 10.4 °F -4.1 °F 8.6 °F 92% 29.71 in 10.0 mi WNW 11.5 mph - N/A   Partly Cloudy
10:15 PM 10.4 °F -2.4 °F 6.8 °F 85% 29.71 in 10.0 mi WNW 9.2 mph - N/A   Partly Cloudy
10:35 PM 10.4 °F -2.4 °F 8.6 °F 92% 29.71 in 10.0 mi WNW 9.2 mph - N/A   Mostly Cloudy
10:55 PM 10.4 °F -3.3 °F 8.6 °F 92% 29.70 in 10.0 mi WNW 10.4 mph - N/A   Overcast
11:15 PM 12.2 °F -1.0 °F 8.6 °F 85% 29.71 in 10.0 mi WNW 10.4 mph - N/A   Overcast
11:35 PM 14.0 °F 1.2 °F 10.4 °F 86% 29.71 in 9.0 mi NW 10.4 mph - N/A   Overcast
11:55 PM 14.0 °F 2.9 °F 10.4 °F 86% 29.71 in 10.0 mi NW 8.1 mph - N/A   Overcast